Regional Weather Roundup
Issued by NWS

Home | Current Version | Previous Version | Text Only | Print | Product List | Glossary On
Versions: 1 2 3 4 5 6 7 8 9 10 11 12 13 14 15 16 17 18 19 20 21 22 23 24 25 26 27 28 29 30 31 32 33 34 35 36 37 38 39 40 41 42 43 44 45 46 47 48 49 50
000
ASUS44 KFWD 261815
RWRTX
NORTH TEXAS HOURLY WEATHER ROUNDUP
NATIONAL WEATHER SERVICE FORT WORTH TX
100 PM CDT FRI AUG 26 2016

NOTE: "FAIR" INDICATES FEW OR NO CLOUDS BELOW 12,000 FEET WITH NO
SIGNIFICANT WEATHER AND/OR OBSTRUCTIONS TO VISIBILITY.

TXZ118-119-261900-
DALLAS/FORT WORTH METROPLEX

CITY           SKY/WX    TMP DP  RH WIND       PRES   REMARKS
DFW AIRPORT    PTSUNNY   89  71  55 VRB3      30.02F HX  95
6HR MIN TEMP:  76; 6HR MAX TEMP:  90;

DALLAS LOVE    PTSUNNY   88  73  61 VRB6      30.03F HX  95
6HR MIN TEMP:  78; 6HR MAX TEMP:  89;

FTW MEACHAM    CLOUDY    80  72  76 SE13      30.04F THUNDER
6HR MIN TEMP:  77; 6HR MAX TEMP:  90;

DAL-EXECUTIVE  MOSUNNY   89  75  63 E7        30.04F HX  99
6HR MIN TEMP:  75; 6HR MAX TEMP:  89;

FTW-ALLIANCE   PTSUNNY   84  73  69 S3        30.03F THUNDER HX  90
6HR MIN TEMP:  74; 6HR MAX TEMP:  87;

FTW-SPINKS     PTSUNNY   82  72  69 CALM      30.07F
ARLINGTON      MOSUNNY   88  73  61 SE6       30.04F HX  95
6HR MIN TEMP:  74; 6HR MAX TEMP:  88;

GRAND PRAIRIE  SUNNY     88  72  58 CALM      30.05F HX  94
ADDISON        PTSUNNY   86  72  62 SE5       30.05F HX  92
MESQUITE       MOSUNNY   86  72  62 CALM      30.05F HX  92
LANCASTER      CLOUDY    87  72  62 S3        30.05F HX  93
6HR MIN TEMP:  73; 6HR MAX TEMP:  88;

$$

TXZ091>094-102>105-117-120-121-131>134-261900-
NORTH CENTRAL TEXAS

CITY           SKY/WX    TMP DP  RH WIND       PRES   REMARKS
SHRMAN/DENISON TSTM      85  74  70 NE7       30.06F HX  93
6HR MIN TEMP:  74; 6HR MAX TEMP:  86;

GAINESVILLE      N/A     86  71  61 CALM      30.06F HX  92
6HR MIN TEMP:  71; 6HR MAX TEMP:  86;

BOWIE          MOSUNNY   89  70  52 CALM      30.05F HX  94
6HR MIN TEMP:  72; 6HR MAX TEMP:  89;

BRIDGEPORT     MOSUNNY   88  70  55 CALM      30.06F HX  93
6HR MIN TEMP:  73; 6HR MAX TEMP:  88;

DECATUR        MOSUNNY   87  69  54 S3        30.06F HX  91
6HR MIN TEMP:  74; 6HR MAX TEMP:  87; 6HR PCP:  0.01;

DENTON         CLOUDY    89  73  59 CALM      30.03F HX  97
6HR MIN TEMP:  73; 6HR MAX TEMP:  89;

MCKINNEY       CLOUDY    85  74  69 E6        30.05F HX  92
6HR MIN TEMP:  73; 6HR MAX TEMP:  85;

GREENVILLE     PTSUNNY   86  72  62 CALM      30.06F HX  92
ROCKWALL       MOSUNNY   85  73  67 CALM      30.04F HAZE    HX  92
6HR MIN TEMP:  72; 6HR MAX TEMP:  85;

TERRELL        PTSUNNY   84  73  69 CALM      30.06F HX  90
6HR MIN TEMP:  73; 6HR MAX TEMP:  84;

WAXAHACHIE     MOSUNNY   86  74  66 CALM      30.06F HX  94
6HR MIN TEMP:  72; 6HR MAX TEMP:  86;

CLEBURNE       RAIN      77  77 100 NE7       30.08S
GRANBURY       CLOUDY    86  71  61 S12       30.08R THUNDER HX  92
6HR MIN TEMP:  74; 6HR MAX TEMP:  89;

$$

TXZ083>090-098>101-113>116-127>130-139>142-154-155-261900-
WESTERN NORTH TEXAS

CITY           SKY/WX    TMP DP  RH WIND       PRES   REMARKS
WICHITA FALLS  MOSUNNY   91  65  41 W8        30.03F HX  93
6HR MIN TEMP:  69; 6HR MAX TEMP:  92;

WF-KICKAPOO    SUNNY     92  62  37 W9        30.05F HX  92
6HR MIN TEMP:  71; 6HR MAX TEMP:  92;

VERNON         SUNNY     85  60  42 CALM      30.07F
ABILENE        MOSUNNY   86  66  51 VRB3      30.09F
6HR MIN TEMP:  70; 6HR MAX TEMP:  87;

ABILENE-DYESS  MOSUNNY   88  66  48 VRB3      30.07F HX  90
6HR MIN TEMP:  67; 6HR MAX TEMP:  89;

CISCO          PTSUNNY   84  68  58 CALM      30.10F
BRECKENRIDGE   MOSUNNY   87  68  51 W5        30.06F HX  90
6HR MIN TEMP:  72; 6HR MAX TEMP:  87;

GRAHAM         MOSUNNY   90  70  50 W6        30.03F HX  95
6HR MIN TEMP:  69; 6HR MAX TEMP:  90;

MINERAL WELLS  MOSUNNY   85  70  60 CALM      30.03F
6HR MIN TEMP:  71; 6HR MAX TEMP:  87;

STEPHENVILLE   CLOUDY    79  69  71 CALM      30.09F
6HR MIN TEMP:  70; 6HR MAX TEMP:  83;

COMANCHE       MOSUNNY   87  70  56 W5        30.08F HX  91
6HR MIN TEMP:  70; 6HR MAX TEMP:  87;

BROWNWOOD      SUNNY     84  68  58 SW5       30.07F
COLEMAN        SUNNY     86  66  50 NE3       30.09F
6HR MIN TEMP:  69; 6HR MAX TEMP:  86;

$$

TXZ143>147-156>162-174-175-261900-
CENTRAL TEXAS

CITY           SKY/WX    TMP DP  RH WIND       PRES   REMARKS
WACO           SUNNY     88  72  58 VRB5      30.04F HX  94
6HR MIN TEMP:  75; 6HR MAX TEMP:  90;

WACO-MCGREGOR  SUNNY     87  72  60 SW3       30.04F HX  93
6HR MIN TEMP:  74; 6HR MAX TEMP:  89;

HILLSBORO      MOSUNNY   85  72  65 S3        30.04F HX  91
6HR MIN TEMP:  70; 6HR MAX TEMP:  86;

CORSICANA      SUNNY     89  71  55 N3        30.06F HX  95
6HR MIN TEMP:  74; 6HR MAX TEMP:  89;

MEXIA          CLOUDY    85  72  64 SW5       30.05F HX  90
6HR MIN TEMP:  71; 6HR MAX TEMP:  85;

HEARNE           N/A     88  73  61 MISG      30.04F HX  95
6HR MIN TEMP:  73; 6HR MAX TEMP:  88;

CAMERON        MOSUNNY   89  72  57 CALM      30.04F HX  95
6HR MIN TEMP:  74; 6HR MAX TEMP:  89;

TEMPLE         PTSUNNY   86  73  65 CALM      30.05F HX  93
6HR MIN TEMP:  74; 6HR MAX TEMP:  87;

KILLEEN        PTSUNNY   87  70  58 SE6       30.04F HX  92
6HR MIN TEMP:  74; 6HR MAX TEMP:  87;

KILLEEN-SKYLRK MOSUNNY   88  73  61 VRB5      30.05F HX  95
6HR MIN TEMP:  75; 6HR MAX TEMP:  89;

FORT HOOD      MOSUNNY   88  72  59 S6        30.02F HX  94
6HR MIN TEMP:  72; 6HR MAX TEMP:  88;

GATESVILLE     SUNNY     88  72  58 CALM      30.07F HX  94
HAMILTON       TSTM      73  72  98 W16       30.10R VSB 1
6HR MIN TEMP:  72; 6HR MAX TEMP:  87; 6HR PCP:  0.61;

LAMPASAS       MOSUNNY   91  73  56 SE6       30.05F HX  99
6HR MIN TEMP:  72; 6HR MAX TEMP:  91;

$$

TXZ095>097-106>112-122>126-135>138-148>153-164>167-261900-
EAST TEXAS

CITY           SKY/WX    TMP DP  RH WIND       PRES   REMARKS
PARIS          CLOUDY    81  72  74 W6        30.09S THUNDER
6HR MIN TEMP:  72; 6HR MAX TEMP:  82; 6HR PCP:  0.05;

SULPHUR SPRNGS CLOUDY    86  72  64 SW5       30.08F HX  92
6HR MIN TEMP:  72; 6HR MAX TEMP:  86;

MOUNT PLEASANT PTSUNNY   84  72  67 E5        30.09F
6HR MIN TEMP:  73; 6HR MAX TEMP:  84;

GILMER         CLOUDY    82  73  75 CALM      30.08F
6HR MIN TEMP:  72; 6HR MAX TEMP:  82;

TYLER          CLOUDY    85  73  67 E7        30.07F HX  91
6HR MIN TEMP:  74; 6HR MAX TEMP:  85;

LONGVIEW       PTSUNNY   83  73  72 VRB3      30.06F
6HR MIN TEMP:  73; 6HR MAX TEMP:  85;

MARSHALL         N/A    N/A N/A N/A MISG        N/A
ATHENS         CLOUDY    84  73  70 E5        30.04F HX  91
PALESTINE      CLOUDY    83  75  77 CALM      30.07F HX  91
JACKSONVILLE   CLOUDY    80  75  86 N5        30.10F
HENDERSON      CLOUDY    81  72  75 CALM      30.08F
6HR MIN TEMP:  73; 6HR MAX TEMP:  83;

CENTER         CLOUDY    85  76  74 N5        30.07F HX  95
6HR MIN TEMP:  74; 6HR MAX TEMP:  87;

NACOGDOCHES    CLOUDY   N/A N/A N/A CALM      30.04F
LUFKIN         PTSUNNY   82  76  81 VRB5      30.05F
6HR MIN TEMP:  74; 6HR MAX TEMP:  82;

$$

SUPPLEMENTAL OBSERVATIONS (CENTRAL)

CITY           SKY/WX    TMP DP  RH WIND       PRES   REMARKS
DENISON DAM      N/A     84  73  70 NE3         N/A  HX  91
CADDO GRASSLND   N/A     84  73  70 S1          N/A  HX  91
PAT MAYSE LAKE   N/A     79  77  94 NW7         N/A
GREENVILLE       N/A     90  73  58 NW2         N/A  HX  98
CEDAR HILL       N/A     90  73  58 W1          N/A  HX  98
ATHENS           N/A     88  77  70 SE7         N/A  HX 100
LAKE LIMESTONE   N/A     91  73  55 W2          N/A  HX 100
MCGREGOR         N/A     90  75  62 SE5         N/A  HX 100
TEMPLE           N/A     90  72  55 SE5         N/A  HX  96
$$

SUPPLEMENTAL OBSERVATIONS (WEST)

CITY           SKY/WX    TMP DP  RH WIND       PRES   REMARKS
MILLERS CREEK    N/A     90  64  43 W9          N/A  HX  91
POSSUM KINGDOM   N/A     90  66  45 NW7  C1F1C2F2C3F3C4F4C5F5C6F6C7F7C8F8C9!



USA.gov is the U.S. government's official web portal to all federal, state and local government web resources and services.